Hourly Data Report for October 04, 2017

All times are specified in Local Standard Time (LST). Add 1 hour to adjust for Daylight Saving Time where and when it is observed.

CORAL HARBOUR A
NUNAVUT

64°11'36.000" N
83°21'34.000" W
62.20 m
2301002
71915
YZS

Download Data

Hourly Data (October 2017)
Hourly Data Report for October 4, 2017
Temp Definition
°C
Dew Point Temp Definition
°C
Rel Hum Definition
%
Wind Dir Definition
10's deg

Wind Spd Definition
km/h
Visibility Definition
km
Stn Press Definition
kPa
Hmdx Definition


Wind Chill Definition


Weather Definition


TIME
00:00 Legend Double Dagger -5.1 -7.7 82 28 28 16.1 99.08   -13 Snow,Blowing Snow
01:00 Legend Double Dagger -5.0 -8.1 79 28 37 12.9 99.05   -14 Snow,Blowing Snow
02:00 Legend Double Dagger -5.4 -8.6 78 28 33 16.1 99.04   -14 Snow,Blowing Snow
03:00 Legend Double Dagger -6.0 -8.8 81 28 32 16.1 98.98   -15 Snow,Blowing Snow
04:00 Legend Double Dagger -6.1 -8.2 85 27 25 19.3 98.94   -14 Snow,Blowing Snow
05:00 Legend Double Dagger -6.2 -8.8 82 29 24 19.3 98.93   -14 Blowing Snow
06:00 Legend Double Dagger -5.8 -9.4 76 28 35 24.1 98.92   -15 Blowing Snow
07:00 Legend Double Dagger -6.0 -9.1 79 28 42 19.3 98.84   -16 Blowing Snow
08:00 Legend Double Dagger -6.0 -9.0 79 28 41 19.3 98.79   -16 Blowing Snow
09:00 Legend Double Dagger -5.7 -8.7 80 28 37 19.3 98.73   -15 Blowing Snow
10:00 Legend Double Dagger -5.4 -8.1 81 27 34 19.3 98.69   -14 Blowing Snow
11:00 Legend Double Dagger -5.0 -8.0 80 27 38 19.3 98.61   -14 Blowing Snow
12:00 Legend Double Dagger -4.5 -7.5 80 26 33 19.3 98.53   -13 Blowing Snow
13:00 Legend Double Dagger -4.4 -6.8 83 26 28 16.1 98.46   -12 Snow,Blowing Snow
14:00 Legend Double Dagger -4.1 -5.7 89 25 22 3.2 98.40   -11 Snow,Blowing Snow
15:00 Legend Double Dagger -4.2 -6.3 86 26 27 3.2 98.32   -12 Snow,Blowing Snow
16:00 Legend Double Dagger -4.6 -7.1 83 25 31 19.3 98.26   -13 Snow,Blowing Snow
17:00 Legend Double Dagger -5.0 -7.1 85 25 32 24.1 98.18   -13 Snow,Blowing Snow
18:00 Legend Double Dagger -4.4 -6.8 84 24 27 24.1 98.12   -12 Snow,Blowing Snow
19:00 Legend Double Dagger -4.6 -6.3 88 23 25 24.1 98.05   -12 Snow,Blowing Snow
20:00 Legend Double Dagger -4.7 -6.1 90 22 21 19.3 97.97   -11 Snow,Blowing Snow
21:00 Legend Double Dagger -4.2 -5.5 91 21 26 19.3 97.88   -11 Snow
22:00 Legend Double Dagger -3.6 -4.9 91 22 21 9.7 97.79   -10 Snow
23:00 Legend Double Dagger -3.6 -5.0 90 22 21 9.7 97.68   -10 Snow

Notes on Data Quality.

Legend

  • E = Estimated
  • M = Missing
  • NA = Not Available
  • ‡ = Partner data that is not subject to review by the National Climate Archives
Date modified: